Showing default

COSMOS 2426 (GLONASS), 29671

Orbit data source: Space-Track

COSMOS 2426 (GLONASS), 29671 is a Commonwealth of Independent States-origin payload satellite in MEO that was launched on Mon, 25 Dec 2006 UTC via a PROTON-K/DM-2 launch vehicle from the Tyuratam Missile And Space Complex (TTMTR). Payload-class satellites include a variety of spacecraft equipped with specific instruments for various scientific and technological missions. These include communications satellites like Starlink; space stations such as the ISS; scientific satellites like the Hubble; Earth observation satellites from companies like Planet Labs, Umbra, and HawkEye 360; GPS; miniature CubeSats for education and research; and military/defense satellites.

Loading next visibility...
Identifier
29671, 2006-062B
Orbit
MEO
Country
Flag of CISCIS
Related business
Manufacturer
Resehetnev ISS
Mission
Non-operational Defense Navigation
Bus & Motor
URAGAN, Unknown motor
Mass
1,450 kg wet, ~1,200 kg dry
Launch date (UTC)
2006-12-25 (19 years ago)
Launch vehicle
PROTON-K/DM-2
Launch site
Tyuratam Missile And Space Complex (TTMTR)
Object type
Payload
Rocket body
Debris
Shape & HBR
Cyl + 1 Arm + 2 Pan, 3.9 m
Radar Cross Section
8.145 m², Large (>1 m²)

Expand to show TLE details & history
Last TLE update: 2 days ago

TLE from 2 days ago
0 COSMOS 2426 (GLONASS)
1 29671U 06062B   26123.51494503  .00000040  00000-0  00000-0 0  9998
2 29671  64.6977 196.0248 0021793 182.5020 179.4443  2.12963960150608
Epoch: 2026-05-03T12:21Z
TLE epoch observation values (Epoch: 2026-05-03T12:21:31.250Z)
Latitude
1.69703°
Longitude
150.02696°
Altitude
19,196.894 km
Speed
3.944 km/s
True Right ascension
13h 07m 17s
True Declination
1° 41' 39"
Sunlit
Object was in daylight at epoch
Visualization orbit readout
Latitude
Unknown
Longitude
Unknown
Altitude
Unknown
Speed
Unknown
Apparent Right ascension
Unknown
Apparent Declination
Unknown
Sunlit
N/A
Visualization observer readout
Local Sidereal Time
18:11:10
Azimuth
Unknown
Elevation
Unknown
Doppler factor
Unknown
Orbital elements
Apogee altitude
19,196.147 km
Perigee altitude
19,084.922 km
Semi-major axis
25,518.671 km
Eccentricity
0.00218
Inclination
64.6977°
RAAN
196.0248°
Arg. of periapsis
182.502°
True anomaly
179.44672°
Mean anomaly
179.4443°
Eccentric anomaly
179.44551°
Mean motion
0.53242 °/min
Orbital period
676.16 mins
BSTAR
0
Loading maneuver chart data...
Computing Atmospheric mass density...
Loading historical data...
Loading historical data...
Loading historical data...
Loading historical data...
Loading historical data...
Loading historical data...
Loading historical data...

Documentation

Showing up to 5 results
|